Tracking 19245 objects as of 15-Aug-2018
HD Live streaming from Space Station
objects crossing your sky now

NOAA 16 DEB

Track NOAA 16 DEB now!
10-day predictions


NORAD ID: 42422
Int'l Code: 2000-055TS
Perigee: 841.0 km
Apogee: 864.7 km
Inclination: 98.9 °
Period: 101.8 minutes
Semi major axis: 7223 km
RCS: Unknown
Launch date: September 21, 2000
Source: United States (US)
Launch site: AIR FORCE WESTERN TEST RANGE (AFWTR)

Note: This is SATELLITE DEBRIS
aabbcc
Your satellite tracking list
Your tracking list is empty




NASA's NSSDC Master Catalog

Two Line Element Set (TLE):
1 42422U 00055TS  18225.44632840 +.00000441 +00000-0 +25543-3 0  9994
2 42422 098.8785 302.2155 0016413 228.4851 131.4914 14.14008410120519
Source of the keplerian elements: AFSPC